Flag for Brazil Weather past 2 weeks in Rio de Janeiro, Rio de Janeiro, Brazil

75 °F

Passing clouds.

Feels Like: 75 °F
Forecast: 71 / 82 °F
Wind: 6 mph from Southeast

Location: Rio De Janeiro Airport

Current Time: Nov 27, 2015 at 2:37:32 AM

Latest Report: Nov 27, 2015 at 1:00 AM

Visibility: N/A

Pressure: 29.98 "Hg

Humidity: 83%

Dew point: 70 °F

Location of Rio de JaneiroLocation

Historic Weather in Rio de Janeiro — Graph


Rio de Janeiro temperature yesterday

Maximum temperature yesterday: 81 °F (at 12:00 PM)
Minimum temperature yesterday: 72 °F (at 2:00 AM)
Average temperature yesterday: 75 °F

Past Weeks' High & Low Weather Summary

High93 °F (Nov 14, 1:00 PM)100% (Nov 12, 1:00 AM)30.04 "Hg (Nov 12, 1:00 AM)
Low68 °F (Nov 21, 10:00 AM)52% (Nov 14, 10:00 AM)29.56 "Hg (Nov 20, 2:00 PM)
Average78 °F85%29.81 "Hg
* Reported Nov 12 1:00 AM — Nov 27 1:00 AM, Rio de Janeiro, Weather by CustomWeather, © 2015

Note: Actual official high and low records may vary slightly from our data, if they occured in-between our weather recording intervals... More about our weather records


Rio de Janeiro weather history for previous 24 hours

Time TempWeatherWind HumidityBarometerVisibility
1:00 AM
Fri, Nov 27
75 °FPassing clouds.6 mph83%29.98 "HgN/A
12:00 AM75 °FPassing clouds.8 mph83%30.01 "HgN/A
11:00 PM
Thu, Nov 26
75 °FPassing clouds.9 mph89%30.04 "HgN/A
10:00 PM73 °FPassing clouds.7 mph89%30.01 "HgN/A
9:00 PM73 °FPassing clouds.9 mph89%30.01 "HgN/A
8:00 PM73 °FPassing clouds.12 mph89%29.98 "HgN/A
7:00 PM73 °FPartly sunny.12 mph89%29.95 "HgN/A
6:00 PM77 °FScattered clouds.15 mph79%29.95 "HgN/A
3:00 PM81 °FScattered clouds.15 mph79%29.95 "HgN/A
2:00 PM81 °FScattered clouds.14 mph74%29.98 "HgN/A
1:00 PM81 °FBroken clouds.14 mph79%29.98 "HgN/A
12:00 PM81 °FBroken clouds.12 mph79%29.98 "HgN/A
11:00 AM79 °FPartly sunny.9 mph84%29.98 "HgN/A
10:00 AM77 °FPartly sunny.7 mph89%29.98 "Hg6 mi
9:00 AM75 °FPartly sunny.6 mph94%29.95 "Hg6 mi
8:00 AM73 °FPartly sunny.3 mph94%29.92 "HgN/A
7:00 AM72 °FPartly sunny.5 mph100%29.92 "HgN/A
6:00 AM72 °FPartly sunny.3 mph100%29.89 "HgN/A
5:00 AM72 °FPartly cloudy.5 mph100%29.89 "HgN/A
4:00 AM72 °FPartly cloudy.5 mph100%29.89 "HgN/A
3:00 AM72 °FDrizzle. Mostly cloudy.7 mph94%29.89 "Hg5 mi
2:00 AM72 °FPassing clouds.5 mph94%29.89 "HgN/A
Weather by CustomWeather, © 2015

See weather overviewHow to use our weather pages